| time (UTC) | temp F | wind direction | speed MPH | gust MPH | rain 1hr in | rain 24hr in | rain mn in | humidity % | barometer mb |
| 20260508114542 | 52 | 0 | 0.0 | 0.0 | 0.00 | 0.00 | 0.00 | 91 | 1016.4 |
| 20260508114022 | 52 | 0 | 0.0 | 0.0 | 0.00 | 0.00 | 0.00 | 91 | 1016.2 |
| 20260508113522 | 52 | 0 | 0.0 | 0.0 | 0.00 | 0.00 | 0.00 | 91 | 1016.2 |
| 20260508113050 | 52 | 0 | 0.0 | 0.0 | 0.00 | 0.00 | 0.00 | 91 | 1016.2 |
| 20260508112522 | 52 | 0 | 0.0 | 0.0 | 0.00 | 0.00 | 0.00 | 91 | 1016.3 |
| 20260508112022 | 52 | 0 | 0.0 | 0.0 | 0.00 | 0.00 | 0.00 | 91 | 1016.2 |
| 20260508111551 | 51 | 0 | 0.0 | 0.0 | 0.00 | 0.00 | 0.00 | 91 | 1016.2 |
| 20260508111025 | 51 | 0 | 0.0 | 0.0 | 0.00 | 0.00 | 0.00 | 91 | 1016.1 |
| 20260508110521 | 51 | 0 | 0.0 | 0.0 | 0.00 | 0.00 | 0.00 | 91 | 1016.2 |
| 20260508110040 | 51 | 0 | 0.0 | 1.0 | 0.00 | 0.00 | 0.00 | 91 | 1016.3 |
| 20260508105522 | 51 | 0 | 0.0 | 1.0 | 0.00 | 0.00 | 0.00 | 91 | 1016.1 |
| 20260508105022 | 51 | 49 | 0.0 | 1.0 | 0.00 | 0.00 | 0.00 | 91 | 1016.1 |
| 20260508104546 | 51 | 49 | 0.0 | 1.0 | 0.00 | 0.00 | 0.00 | 91 | 1016.1 |
| 20260508104024 | 51 | 39 | 1.0 | 1.0 | 0.00 | 0.00 | 0.00 | 91 | 1016.1 |
| 20260508103521 | 52 | 39 | 0.0 | 1.0 | 0.00 | 0.00 | 0.00 | 90 | 1016.2 |
| 20260508103041 | 52 | 39 | 1.0 | 1.0 | 0.00 | 0.00 | 0.00 | 90 | 1016.1 |
| 20260508102523 | 52 | 39 | 0.0 | 1.0 | 0.00 | 0.00 | 0.00 | 90 | 1016.2 |
| 20260508102021 | 52 | 30 | 0.0 | 1.0 | 0.00 | 0.00 | 0.00 | 90 | 1016.2 |
| 20260508101542 | 52 | 30 | 1.0 | 1.0 | 0.00 | 0.00 | 0.00 | 90 | 1016.2 |
| 20260508101024 | 52 | 30 | 1.0 | 2.0 | 0.00 | 0.00 | 0.00 | 90 | 1016.1 |
| 20260508100521 | 52 | 6 | 1.0 | 2.0 | 0.00 | 0.00 | 0.00 | 90 | 1016.1 |
| 20260508100037 | 52 | 18 | 0.0 | 1.0 | 0.00 | 0.00 | 0.00 | 90 | 1016.1 |
| 20260508095525 | 52 | 0 | 0.0 | 0.0 | 0.00 | 0.00 | 0.00 | 89 | 1016.1 |
| 20260508095022 | 52 | 0 | 0.0 | 2.0 | 0.00 | 0.00 | 0.00 | 89 | 1016.1 |
| 20260508094537 | 52 | 0 | 0.0 | 2.0 | 0.00 | 0.00 | 0.00 | 89 | 1015.9 |
| 20260508094024 | 52 | 50 | 1.0 | 2.0 | 0.00 | 0.00 | 0.00 | 89 | 1016.0 |
| 20260508093521 | 52 | 49 | 1.0 | 1.0 | 0.00 | 0.00 | 0.00 | 89 | 1016.0 |
| 20260508093044 | 52 | 49 | 1.0 | 1.0 | 0.00 | 0.00 | 0.00 | 88 | 1015.9 |
| 20260508092521 | 52 | 49 | 0.0 | 2.0 | 0.00 | 0.00 | 0.00 | 88 | 1015.9 |
| 20260508092021 | 52 | 359 | 1.0 | 2.0 | 0.00 | 0.00 | 0.00 | 88 | 1016.0 |
| 20260508091551 | 53 | 20 | 0.0 | 1.0 | 0.00 | 0.00 | 0.00 | 88 | 1016.0 |
| 20260508091024 | 53 | 53 | 1.0 | 2.0 | 0.00 | 0.00 | 0.00 | 88 | 1015.9 |
| 20260508090524 | 53 | 54 | 1.0 | 2.0 | 0.00 | 0.00 | 0.00 | 87 | 1015.8 |
| 20260508090043 | 53 | 54 | 1.0 | 2.0 | 0.00 | 0.00 | 0.00 | 87 | 1015.9 |
| 20260508085520 | 53 | 53 | 1.0 | 2.0 | 0.00 | 0.00 | 0.00 | 87 | 1015.9 |
| 20260508085022 | 53 | 0 | 0.0 | 2.0 | 0.00 | 0.00 | 0.00 | 87 | 1016.0 |
| 20260508084541 | 53 | 77 | 0.0 | 2.0 | 0.00 | 0.00 | 0.00 | 87 | 1016.1 |
| 20260508084022 | 54 | 83 | 1.0 | 3.0 | 0.00 | 0.00 | 0.00 | 87 | 1016.0 |
| 20260508083520 | 54 | 86 | 1.0 | 3.0 | 0.00 | 0.00 | 0.00 | 86 | 1016.1 |
| 20260508083048 | 54 | 93 | 1.0 | 3.0 | 0.00 | 0.00 | 0.00 | 86 | 1016.1 |
| 20260508082521 | 54 | 94 | 1.0 | 2.0 | 0.00 | 0.00 | 0.00 | 86 | 1016.0 |
| 20260508082024 | 54 | 51 | 0.0 | 2.0 | 0.00 | 0.00 | 0.00 | 86 | 1016.0 |
| 20260508081547 | 54 | 51 | 1.0 | 2.0 | 0.00 | 0.00 | 0.00 | 86 | 1016.1 |
| 20260508081025 | 54 | 51 | 1.0 | 2.0 | 0.00 | 0.00 | 0.00 | 85 | 1016.1 |
| 20260508080521 | 55 | 0 | 0.0 | 0.0 | 0.00 | 0.00 | 0.00 | 85 | 1016.1 |
| 20260508080041 | 55 | 0 | 0.0 | 0.0 | 0.00 | 0.00 | 0.00 | 84 | 1016.2 |
| 20260508075524 | 55 | 0 | 0.0 | 0.0 | 0.00 | 0.00 | 0.00 | 84 | 1016.3 |
| 20260508075026 | 55 | 0 | 0.0 | 0.0 | 0.00 | 0.00 | 0.00 | 84 | 1016.1 |
| 20260508074549 | 55 | 0 | 0.0 | 0.0 | 0.00 | 0.00 | 0.00 | 84 | 1016.2 |
| 20260508074024 | 55 | 0 | 0.0 | 0.0 | 0.00 | 0.00 | 0.00 | 84 | 1016.3 |
| 20260508073521 | 55 | 0 | 0.0 | 2.0 | 0.00 | 0.00 | 0.00 | 85 | 1016.3 |
| 20260508073038 | 55 | 0 | 1.0 | 2.0 | 0.00 | 0.00 | 0.00 | 85 | 1016.2 |
| 20260508072521 | 55 | 135 | 1.0 | 2.0 | 0.00 | 0.00 | 0.00 | 85 | 1016.3 |
| 20260508072022 | 55 | 129 | 1.0 | 2.0 | 0.00 | 0.00 | 0.00 | 85 | 1016.3 |
| 20260508071538 | 55 | 0 | 0.0 | 2.0 | 0.00 | 0.00 | 0.00 | 85 | 1016.3 |
| 20260508071021 | 55 | 107 | 1.0 | 2.0 | 0.00 | 0.00 | 0.00 | 86 | 1016.4 |
| 20260508070522 | 54 | 105 | 1.0 | 2.0 | 0.00 | 0.00 | 0.00 | 86 | 1016.3 |
| 20260508070043 | 54 | 101 | 1.0 | 2.0 | 0.00 | 0.00 | 0.00 | 86 | 1016.3 |
| 20260508065521 | 54 | 169 | 0.0 | 3.0 | 0.00 | 0.00 | 0.00 | 87 | 1016.5 |
| 20260508065022 | 54 | 0 | 1.0 | 3.0 | 0.00 | 0.00 | 0.00 | 87 | 1016.5 |
| 20260508064541 | 53 | 146 | 1.0 | 3.0 | 0.00 | 0.00 | 0.00 | 88 | 1016.5 |
| 20260508064024 | 53 | 176 | 1.0 | 2.0 | 0.00 | 0.00 | 0.00 | 90 | 1016.5 |
| 20260508063521 | 52 | 0 | 0.0 | 2.0 | 0.00 | 0.00 | 0.00 | 90 | 1016.5 |
| 20260508063038 | 52 | 0 | 0.0 | 2.0 | 0.00 | 0.00 | 0.00 | 91 | 1016.5 |
| 20260508062526 | 52 | 281 | 1.0 | 2.0 | 0.00 | 0.00 | 0.00 | 90 | 1016.5 |
| 20260508062022 | 52 | 0 | 0.0 | 0.0 | 0.00 | 0.00 | 0.00 | 91 | 1016.4 |
| 20260508061538 | 52 | 0 | 0.0 | 1.0 | 0.00 | 0.00 | 0.00 | 91 | 1016.4 |
| 20260508061022 | 51 | 0 | 0.0 | 2.0 | 0.00 | 0.00 | 0.00 | 92 | 1016.4 |
| 20260508060521 | 51 | 302 | 0.0 | 2.0 | 0.00 | 0.00 | 0.00 | 92 | 1016.5 |
| 20260508060046 | 51 | 0 | 0.0 | 0.0 | 0.00 | 0.00 | 0.00 | 91 | 1016.4 |
| 20260508055528 | 51 | 0 | 0.0 | 0.0 | 0.00 | 0.00 | 0.00 | 91 | 1016.5 |
| 20260508055021 | 51 | 0 | 0.0 | 0.0 | 0.00 | 0.00 | 0.00 | 91 | 1016.4 |
| 20260508054542 | 51 | 0 | 0.0 | 0.0 | 0.00 | 0.00 | 0.00 | 90 | 1016.4 |
| 20260508054021 | 52 | 0 | 0.0 | 1.0 | 0.00 | 0.00 | 0.00 | 90 | 1016.3 |
| 20260508053524 | 52 | 0 | 0.0 | 1.0 | 0.00 | 0.00 | 0.00 | 90 | 1016.4 |
| 20260508053046 | 52 | 307 | 1.0 | 2.0 | 0.00 | 0.00 | 0.00 | 90 | 1016.3 |
| 20260508052521 | 52 | 306 | 1.0 | 2.0 | 0.00 | 0.00 | 0.00 | 89 | 1016.3 |
| 20260508052020 | 53 | 0 | 0.0 | 1.0 | 0.00 | 0.00 | 0.00 | 89 | 1016.3 |
| 20260508051542 | 53 | 8 | 0.0 | 1.0 | 0.00 | 0.00 | 0.00 | 89 | 1016.3 |
| 20260508051022 | 53 | 0 | 0.0 | 1.0 | 0.00 | 0.00 | 0.00 | 88 | 1016.2 |
| 20260508050522 | 53 | 6 | 0.0 | 1.0 | 0.00 | 0.00 | 0.00 | 89 | 1016.3 |
| 20260508050037 | 53 | 0 | 0.0 | 1.0 | 0.00 | 0.00 | 0.00 | 89 | 1016.4 |
| 20260508045529 | 54 | 280 | 0.0 | 1.0 | 0.00 | 0.00 | 0.00 | 88 | 1016.4 |
| 20260508045021 | 54 | 267 | 0.0 | 1.0 | 0.00 | 0.00 | 0.00 | 88 | 1016.4 |
| 20260508044537 | 54 | 266 | 0.0 | 1.0 | 0.00 | 0.00 | 0.00 | 87 | 1016.4 |
| 20260508044021 | 54 | 216 | 1.0 | 1.0 | 0.00 | 0.00 | 0.00 | 86 | 1016.5 |
| 20260508043530 | 55 | 0 | 0.0 | 1.0 | 0.00 | 0.00 | 0.00 | 86 | 1016.5 |
| 20260508043046 | 55 | 0 | 0.0 | 3.0 | 0.00 | 0.00 | 0.00 | 85 | 1016.6 |
| 20260508042520 | 55 | 0 | 0.0 | 3.0 | 0.00 | 0.00 | 0.00 | 85 | 1016.6 |
| 20260508042022 | 55 | 180 | 1.0 | 3.0 | 0.00 | 0.00 | 0.00 | 84 | 1016.7 |
| 20260508041541 | 55 | 227 | 1.0 | 3.0 | 0.00 | 0.00 | 0.00 | 84 | 1016.6 |
| 20260508041024 | 55 | 187 | 1.0 | 3.0 | 0.00 | 0.00 | 0.00 | 84 | 1016.6 |
| 20260508040525 | 55 | 193 | 1.0 | 3.0 | 0.00 | 0.00 | 0.00 | 84 | 1016.6 |
| 20260508040042 | 55 | 187 | 2.0 | 4.0 | 0.00 | 0.00 | 0.00 | 84 | 1016.6 |
| 20260508035522 | 55 | 203 | 2.0 | 4.0 | 0.00 | 0.00 | 0.00 | 84 | 1016.6 |
| 20260508035025 | 56 | 161 | 0.0 | 2.0 | 0.00 | 0.00 | 0.00 | 84 | 1016.5 |
| 20260508034537 | 56 | 153 | 0.0 | 4.0 | 0.00 | 0.00 | 0.00 | 84 | 1016.5 |
| 20260508034027 | 56 | 190 | 1.0 | 4.0 | 0.00 | 0.00 | 0.00 | 83 | 1016.5 |
| 20260508033524 | 56 | 177 | 1.0 | 4.0 | 0.00 | 0.00 | 0.00 | 83 | 1016.5 |
| 20260508033039 | 57 | 223 | 2.0 | 4.0 | 0.00 | 0.00 | 0.00 | 82 | 1016.4 |
| 20260508032525 | 57 | 191 | 2.0 | 4.0 | 0.00 | 0.00 | 0.00 | 80 | 1016.5 |
| 20260508032025 | 58 | 237 | 1.0 | 3.0 | 0.00 | 0.00 | 0.00 | 80 | 1016.5 |
| 20260508031537 | 58 | 210 | 1.0 | 3.0 | 0.00 | 0.00 | 0.00 | 79 | 1016.4 |
| 20260508031024 | 59 | 155 | 1.0 | 3.0 | 0.00 | 0.00 | 0.00 | 78 | 1016.4 |
| 20260508030521 | 59 | 160 | 1.0 | 3.0 | 0.00 | 0.00 | 0.00 | 77 | 1016.5 |
| 20260508030045 | 59 | 162 | 1.0 | 4.0 | 0.00 | 0.00 | 0.00 | 76 | 1016.5 |
| 20260508025521 | 60 | 141 | 1.0 | 4.0 | 0.00 | 0.00 | 0.00 | 76 | 1016.6 |
| 20260508025021 | 60 | 139 | 2.0 | 5.0 | 0.00 | 0.00 | 0.00 | 75 | 1016.6 |
| 20260508024541 | 60 | 202 | 1.0 | 5.0 | 0.00 | 0.00 | 0.00 | 75 | 1016.6 |
| 20260508024021 | 60 | 138 | 2.0 | 5.0 | 0.00 | 0.00 | 0.00 | 76 | 1016.7 |
| 20260508023521 | 60 | 154 | 2.0 | 3.0 | 0.00 | 0.00 | 0.00 | 76 | 1016.7 |
| 20260508023039 | 60 | 189 | 1.0 | 3.0 | 0.00 | 0.00 | 0.00 | 75 | 1016.8 |
| 20260508022522 | 61 | 221 | 1.0 | 4.0 | 0.00 | 0.00 | 0.00 | 75 | 1016.8 |
| 20260508022023 | 60 | 352 | 1.0 | 5.0 | 0.00 | 0.00 | 0.00 | 75 | 1016.7 |
| 20260508021545 | 60 | 208 | 2.0 | 5.0 | 0.00 | 0.00 | 0.00 | 75 | 1016.7 |
| 20260508021022 | 60 | 168 | 2.0 | 4.0 | 0.00 | 0.00 | 0.00 | 76 | 1016.8 |
| 20260508020520 | 60 | 198 | 1.0 | 4.0 | 0.00 | 0.00 | 0.00 | 78 | 1016.7 |
| 20260508020037 | 60 | 266 | 2.0 | 6.0 | 0.00 | 0.00 | 0.00 | 77 | 1016.8 |
| 20260508015520 | 61 | 155 | 2.0 | 6.0 | 0.00 | 0.00 | 0.00 | 75 | 1016.8 |
| 20260508015022 | 61 | 217 | 1.0 | 4.0 | 0.00 | 0.00 | 0.00 | 75 | 1017.0 |
| 20260508014537 | 61 | 154 | 1.0 | 6.0 | 0.00 | 0.00 | 0.00 | 74 | 1016.9 |
| 20260508014022 | 62 | 207 | 2.0 | 6.0 | 0.00 | 0.00 | 0.00 | 73 | 1017.0 |
| 20260508013521 | 62 | 161 | 2.0 | 5.0 | 0.00 | 0.00 | 0.00 | 71 | 1017.0 |
| 20260508013045 | 62 | 5 | 2.0 | 5.0 | 0.00 | 0.00 | 0.00 | 71 | 1017.0 |
| 20260508012521 | 62 | 155 | 2.0 | 5.0 | 0.00 | 0.00 | 0.00 | 72 | 1017.0 |
| 20260508012021 | 62 | 158 | 2.0 | 4.0 | 0.00 | 0.00 | 0.00 | 72 | 1017.1 |
| 20260508011542 | 62 | 170 | 1.0 | 4.0 | 0.00 | 0.00 | 0.00 | 73 | 1017.1 |
| 20260508011021 | 62 | 141 | 1.0 | 3.0 | 0.00 | 0.00 | 0.00 | 75 | 1017.3 |
| 20260508010521 | 62 | 124 | 1.0 | 3.0 | 0.00 | 0.00 | 0.00 | 75 | 1017.3 |
| 20260508010040 | 61 | 217 | 1.0 | 4.0 | 0.00 | 0.00 | 0.00 | 76 | 1017.4 |
| 20260508005525 | 62 | 165 | 1.0 | 4.0 | 0.00 | 0.00 | 0.00 | 75 | 1017.4 |
| 20260508005024 | 62 | 141 | 2.0 | 4.0 | 0.00 | 0.00 | 0.00 | 74 | 1017.5 |
| 20260508004541 | 62 | 182 | 1.0 | 5.0 | 0.00 | 0.00 | 0.00 | 75 | 1017.5 |
| 20260508004021 | 62 | 167 | 2.0 | 5.0 | 0.00 | 0.00 | 0.00 | 75 | 1017.5 |
| 20260508003520 | 61 | 217 | 1.0 | 8.0 | 0.00 | 0.00 | 0.00 | 76 | 1017.6 |
| 20260508003048 | 61 | 194 | 2.0 | 8.0 | 0.00 | 0.00 | 0.00 | 77 | 1017.7 |
| 20260508002520 | 61 | 303 | 2.0 | 8.0 | 0.00 | 0.00 | 0.00 | 76 | 1017.6 |
| 20260508002021 | 60 | 124 | 2.0 | 5.0 | 0.00 | 0.00 | 0.00 | 79 | 1017.6 |
| 20260508001539 | 60 | 0 | 1.0 | 5.0 | 0.00 | 0.00 | 0.00 | 79 | 1017.5 |
| 20260508001021 | 60 | 225 | 1.0 | 3.0 | 0.00 | 0.00 | 0.00 | 79 | 1017.6 |
| 20260508000521 | 60 | 193 | 1.0 | 5.0 | 0.00 | 0.00 | 0.00 | 79 | 1017.6 |
| 20260508000044 | 60 | 126 | 1.0 | 5.0 | 0.00 | 0.00 | 0.00 | 79 | 1017.6 |
| 20260507235524 | 60 | 230 | 2.0 | 5.0 | 0.00 | 0.00 | 0.00 | 79 | 1017.6 |
| 20260507235023 | 60 | 339 | 3.0 | 5.0 | 0.00 | 0.00 | 0.00 | 78 | 1017.7 |
| 20260507234543 | 60 | 236 | 3.0 | 6.0 | 0.00 | 0.00 | 0.00 | 79 | 1017.7 |
| 20260507234021 | 60 | 186 | 2.0 | 9.0 | 0.00 | 0.00 | 0.00 | 81 | 1017.6 |
| 20260507233521 | 60 | 271 | 3.0 | 9.0 | 0.00 | 0.00 | 0.00 | 79 | 1017.7 |
| 20260507233041 | 60 | 219 | 2.0 | 8.0 | 0.00 | 0.00 | 0.00 | 78 | 1017.7 |
| 20260507232521 | 61 | 214 | 2.0 | 8.0 | 0.00 | 0.00 | 0.00 | 77 | 1017.8 |
| 20260507232020 | 61 | 162 | 2.0 | 6.0 | 0.00 | 0.00 | 0.00 | 78 | 1017.9 |
| 20260507231546 | 61 | 332 | 2.0 | 6.0 | 0.00 | 0.00 | 0.00 | 77 | 1018.0 |
| 20260507231025 | 60 | 124 | 2.0 | 6.0 | 0.00 | 0.00 | 0.00 | 77 | 1018.0 |
| 20260507230522 | 60 | 301 | 2.0 | 6.0 | 0.00 | 0.00 | 0.00 | 78 | 1018.0 |
| 20260507230037 | 60 | 207 | 3.0 | 6.0 | 0.00 | 0.00 | 0.00 | 78 | 1018.1 |
| 20260507225523 | 60 | 229 | 2.0 | 6.0 | 0.00 | 0.00 | 0.00 | 78 | 1018.1 |
| 20260507225022 | 60 | 267 | 2.0 | 6.0 | 0.00 | 0.00 | 0.00 | 77 | 1018.3 |
| 20260507224537 | 60 | 94 | 1.0 | 7.0 | 0.00 | 0.00 | 0.00 | 77 | 1018.2 |
| 20260507224020 | 60 | 259 | 3.0 | 7.0 | 0.00 | 0.00 | 0.00 | 76 | 1018.3 |
| 20260507223520 | 60 | 207 | 3.0 | 7.0 | 0.00 | 0.00 | 0.00 | 77 | 1018.4 |
| 20260507223044 | 60 | 222 | 2.0 | 7.0 | 0.00 | 0.00 | 0.00 | 76 | 1018.3 |
| 20260507222520 | 60 | 234 | 2.0 | 7.0 | 0.00 | 0.00 | 0.00 | 76 | 1018.4 |
| 20260507222022 | 61 | 303 | 3.0 | 7.0 | 0.00 | 0.00 | 0.00 | 75 | 1018.4 |
| 20260507221541 | 61 | 245 | 2.0 | 6.0 | 0.00 | 0.00 | 0.00 | 77 | 1018.5 |
| 20260507221023 | 60 | 238 | 3.0 | 8.0 | 0.00 | 0.00 | 0.00 | 77 | 1018.6 |
| 20260507220520 | 60 | 127 | 2.0 | 8.0 | 0.00 | 0.00 | 0.00 | 78 | 1018.7 |
| 20260507220040 | 60 | 229 | 3.0 | 8.0 | 0.00 | 0.00 | 0.00 | 77 | 1018.7 |
| 20260507215521 | 60 | 279 | 3.0 | 8.0 | 0.00 | 0.00 | 0.00 | 76 | 1018.9 |
| 20260507215022 | 60 | 55 | 3.0 | 8.0 | 0.00 | 0.00 | 0.00 | 77 | 1018.8 |
| 20260507214552 | 60 | 208 | 2.0 | 8.0 | 0.00 | 0.00 | 0.00 | 78 | 1018.8 |
| 20260507214021 | 60 | 235 | 3.0 | 8.0 | 0.00 | 0.00 | 0.00 | 77 | 1018.9 |
| 20260507213521 | 60 | 267 | 3.0 | 9.0 | 0.00 | 0.00 | 0.00 | 79 | 1018.9 |
| 20260507213039 | 59 | 283 | 4.0 | 9.0 | 0.00 | 0.00 | 0.00 | 78 | 1019.0 |
| 20260507212521 | 59 | 246 | 3.0 | 9.0 | 0.00 | 0.00 | 0.00 | 79 | 1019.0 |
| 20260507212024 | 59 | 263 | 6.0 | 9.0 | 0.00 | 0.00 | 0.00 | 77 | 1019.1 |
| 20260507211537 | 60 | 238 | 3.0 | 8.0 | 0.00 | 0.00 | 0.00 | 78 | 1018.9 |
| 20260507211022 | 60 | 248 | 3.0 | 8.0 | 0.00 | 0.00 | 0.00 | 78 | 1019.1 |
| 20260507210521 | 60 | 240 | 5.0 | 7.0 | 0.00 | 0.00 | 0.00 | 76 | 1019.1 |
| 20260507210051 | 60 | 276 | 3.0 | 8.0 | 0.00 | 0.00 | 0.00 | 76 | 1019.0 |
| 20260507205521 | 60 | 212 | 4.0 | 8.0 | 0.00 | 0.00 | 0.00 | 76 | 1019.2 |
| 20260507205020 | 60 | 269 | 4.0 | 7.0 | 0.00 | 0.00 | 0.00 | 76 | 1019.2 |
| 20260507204541 | 61 | 287 | 3.0 | 7.0 | 0.00 | 0.00 | 0.00 | 74 | 1019.3 |
| 20260507204027 | 61 | 257 | 3.0 | 8.0 | 0.00 | 0.00 | 0.00 | 76 | 1019.3 |
| 20260507203524 | 60 | 203 | 3.0 | 8.0 | 0.00 | 0.00 | 0.00 | 76 | 1019.3 |
| 20260507203048 | 60 | 265 | 4.0 | 8.0 | 0.00 | 0.00 | 0.00 | 75 | 1019.3 |
| 20260507202521 | 61 | 248 | 3.0 | 7.0 | 0.00 | 0.00 | 0.00 | 74 | 1019.5 |
| 20260507202020 | 62 | 255 | 2.0 | 6.0 | 0.00 | 0.00 | 0.00 | 75 | 1019.5 |
| 20260507201543 | 62 | 212 | 3.0 | 6.0 | 0.00 | 0.00 | 0.00 | 74 | 1019.6 |
| 20260507201021 | 62 | 293 | 2.0 | 6.0 | 0.00 | 0.00 | 0.00 | 73 | 1019.6 |
| 20260507200522 | 62 | 186 | 2.0 | 6.0 | 0.00 | 0.00 | 0.00 | 75 | 1019.6 |
| 20260507200045 | 63 | 140 | 2.0 | 6.0 | 0.00 | 0.00 | 0.00 | 73 | 1019.7 |
| 20260507195520 | 62 | 188 | 2.0 | 4.0 | 0.00 | 0.00 | 0.00 | 75 | 1019.8 |
| 20260507195020 | 62 | 281 | 2.0 | 4.0 | 0.00 | 0.00 | 0.00 | 74 | 1019.7 |
| 20260507194607 | 63 | 226 | 1.0 | 5.0 | 0.00 | 0.00 | 0.00 | 76 | 1019.8 |
| 20260507194021 | 62 | 216 | 1.0 | 5.0 | 0.00 | 0.00 | 0.00 | 77 | 1019.8 |
| 20260507193523 | 62 | 256 | 2.0 | 5.0 | 0.00 | 0.00 | 0.00 | 77 | 1019.9 |
| 20260507193041 | 62 | 198 | 2.0 | 5.0 | 0.00 | 0.00 | 0.00 | 77 | 1019.8 |
| 20260507192522 | 61 | 140 | 3.0 | 5.0 | 0.00 | 0.00 | 0.00 | 77 | 1019.9 |
| 20260507192024 | 61 | 175 | 3.0 | 5.0 | 0.00 | 0.00 | 0.00 | 79 | 1020.0 |
| 20260507191544 | 60 | 132 | 1.0 | 6.0 | 0.00 | 0.00 | 0.00 | 81 | 1019.9 |
| 20260507191021 | 59 | 224 | 2.0 | 6.0 | 0.00 | 0.00 | 0.00 | 81 | 1020.0 |
| 20260507190521 | 59 | 219 | 3.0 | 6.0 | 0.00 | 0.00 | 0.00 | 79 | 1020.0 |
| 20260507190041 | 59 | 273 | 2.0 | 5.0 | 0.00 | 0.00 | 0.00 | 82 | 1020.0 |
| 20260507185520 | 58 | 316 | 2.0 | 5.0 | 0.00 | 0.00 | 0.00 | 82 | 1019.9 |
| 20260507185025 | 58 | 266 | 2.0 | 5.0 | 0.00 | 0.00 | 0.00 | 83 | 1020.1 |
| 20260507184540 | 57 | 30 | 1.0 | 4.0 | 0.00 | 0.00 | 0.00 | 83 | 1020.1 |
| 20260507184021 | 57 | 288 | 2.0 | 4.0 | 0.00 | 0.00 | 0.00 | 83 | 1020.1 |
| 20260507183520 | 57 | 293 | 2.0 | 4.0 | 0.00 | 0.00 | 0.00 | 83 | 1020.1 |
| 20260507183038 | 57 | 258 | 2.0 | 4.0 | 0.00 | 0.00 | 0.00 | 83 | 1020.1 |
| 20260507182521 | 58 | 264 | 2.0 | 4.0 | 0.00 | 0.00 | 0.00 | 83 | 1020.1 |
| 20260507182021 | 58 | 245 | 2.0 | 4.0 | 0.00 | 0.00 | 0.00 | 82 | 1020.1 |
| 20260507181545 | 58 | 281 | 1.0 | 3.0 | 0.00 | 0.00 | 0.00 | 83 | 1020.1 |
| 20260507181021 | 58 | 219 | 1.0 | 3.0 | 0.00 | 0.00 | 0.00 | 83 | 1020.1 |
| 20260507180519 | 57 | 153 | 1.0 | 3.0 | 0.00 | 0.00 | 0.00 | 85 | 1020.0 |
| 20260507180043 | 57 | 200 | 1.0 | 3.0 | 0.00 | 0.00 | 0.00 | 86 | 1020.1 |
| 20260507175521 | 56 | 136 | 0.0 | 3.0 | 0.00 | 0.00 | 0.00 | 85 | 1020.2 |
| 20260507175021 | 56 | 113 | 2.0 | 3.0 | 0.00 | 0.00 | 0.00 | 85 | 1020.1 |
| 20260507174547 | 56 | 117 | 1.0 | 3.0 | 0.00 | 0.00 | 0.00 | 86 | 1020.1 |
| 20260507174020 | 56 | 120 | 1.0 | 3.0 | 0.00 | 0.00 | 0.00 | 86 | 1020.2 |
| 20260507173523 | 56 | 113 | 2.0 | 3.0 | 0.00 | 0.00 | 0.00 | 85 | 1020.3 |
| 20260507173048 | 56 | 93 | 2.0 | 4.0 | 0.00 | 0.00 | 0.00 | 85 | 1020.2 |
| 20260507172521 | 56 | 128 | 1.0 | 4.0 | 0.00 | 0.00 | 0.00 | 85 | 1020.2 |
| 20260507172020 | 56 | 152 | 1.0 | 4.0 | 0.00 | 0.00 | 0.00 | 86 | 1020.2 |
| 20260507171545 | 56 | 82 | 1.0 | 3.0 | 0.00 | 0.00 | 0.00 | 86 | 1020.3 |
| 20260507171023 | 55 | 92 | 2.0 | 3.0 | 0.00 | 0.00 | 0.00 | 86 | 1020.3 |
| 20260507170524 | 55 | 137 | 1.0 | 4.0 | 0.00 | 0.00 | 0.00 | 86 | 1020.2 |
| 20260507170046 | 55 | 96 | 2.0 | 4.0 | 0.00 | 0.00 | 0.00 | 86 | 1020.3 |
| 20260507165520 | 55 | 147 | 1.0 | 4.0 | 0.00 | 0.00 | 0.00 | 86 | 1020.2 |
| 20260507165020 | 55 | 120 | 1.0 | 5.0 | 0.00 | 0.00 | 0.00 | 86 | 1020.3 |
| 20260507164544 | 55 | 128 | 3.0 | 5.0 | 0.00 | 0.00 | 0.00 | 85 | 1020.2 |
| 20260507164021 | 55 | 66 | 0.0 | 5.0 | 0.00 | 0.00 | 0.00 | 86 | 1020.1 |
| 20260507163522 | 55 | 99 | 2.0 | 5.0 | 0.00 | 0.00 | 0.00 | 85 | 1020.2 |
| 20260507163041 | 55 | 169 | 2.0 | 5.0 | 0.00 | 0.00 | 0.00 | 86 | 1020.2 |
| 20260507162522 | 54 | 122 | 2.0 | 5.0 | 0.00 | 0.00 | 0.00 | 86 | 1020.2 |
| 20260507162023 | 55 | 127 | 1.0 | 4.0 | 0.00 | 0.00 | 0.00 | 86 | 1020.2 |
| 20260507161542 | 55 | 138 | 1.0 | 5.0 | 0.00 | 0.00 | 0.00 | 85 | 1020.2 |
| 20260507161025 | 55 | 128 | 2.0 | 5.0 | 0.00 | 0.00 | 0.00 | 85 | 1020.2 |
| 20260507160523 | 55 | 112 | 1.0 | 5.0 | 0.00 | 0.00 | 0.00 | 86 | 1020.3 |
| 20260507160037 | 54 | 139 | 3.0 | 7.0 | 0.00 | 0.00 | 0.00 | 85 | 1020.3 |
| 20260507155522 | 55 | 133 | 3.0 | 7.0 | 0.00 | 0.00 | 0.00 | 85 | 1020.4 |
| 20260507155022 | 55 | 131 | 3.0 | 5.0 | 0.00 | 0.00 | 0.00 | 85 | 1020.3 |
| 20260507154538 | 54 | 164 | 2.0 | 4.0 | 0.00 | 0.00 | 0.00 | 85 | 1020.5 |
| 20260507154022 | 54 | 160 | 1.0 | 4.0 | 0.00 | 0.00 | 0.00 | 85 | 1020.4 |
| 20260507153522 | 54 | 142 | 2.0 | 4.0 | 0.00 | 0.00 | 0.00 | 85 | 1020.5 |
| 20260507153042 | 54 | 130 | 1.0 | 5.0 | 0.00 | 0.00 | 0.00 | 85 | 1020.5 |
| 20260507152522 | 54 | 151 | 2.0 | 5.0 | 0.00 | 0.00 | 0.00 | 85 | 1020.4 |
| 20260507152022 | 54 | 143 | 1.0 | 5.0 | 0.00 | 0.00 | 0.00 | 86 | 1020.4 |
| 20260507151543 | 54 | 110 | 2.0 | 5.0 | 0.00 | 0.00 | 0.00 | 85 | 1020.3 |
| 20260507151022 | 55 | 174 | 2.0 | 5.0 | 0.00 | 0.00 | 0.00 | 84 | 1020.4 |
| 20260507150523 | 55 | 180 | 2.0 | 4.0 | 0.00 | 0.00 | 0.00 | 85 | 1020.3 |
| 20260507150039 | 55 | 167 | 2.0 | 4.0 | 0.00 | 0.00 | 0.00 | 87 | 1020.3 |
| 20260507145523 | 54 | 159 | 2.0 | 5.0 | 0.00 | 0.00 | 0.00 | 86 | 1020.2 |
| 20260507145024 | 54 | 169 | 2.0 | 5.0 | 0.00 | 0.00 | 0.00 | 86 | 1020.3 |
| 20260507144541 | 54 | 155 | 1.0 | 4.0 | 0.00 | 0.00 | 0.00 | 87 | 1020.3 |
| 20260507144023 | 54 | 169 | 2.0 | 4.0 | 0.00 | 0.00 | 0.00 | 87 | 1020.4 |
| 20260507143522 | 53 | 189 | 2.0 | 4.0 | 0.00 | 0.00 | 0.00 | 87 | 1020.3 |
| 20260507143038 | 53 | 160 | 1.0 | 4.0 | 0.00 | 0.00 | 0.00 | 87 | 1020.3 |
| 20260507142523 | 53 | 168 | 2.0 | 3.0 | 0.00 | 0.00 | 0.00 | 88 | 1020.3 |
| 20260507142022 | 53 | 136 | 2.0 | 3.0 | 0.00 | 0.00 | 0.00 | 88 | 1020.2 |
| 20260507141541 | 53 | 120 | 1.0 | 3.0 | 0.00 | 0.00 | 0.00 | 88 | 1020.2 |
| 20260507141023 | 53 | 81 | 1.0 | 3.0 | 0.00 | 0.00 | 0.00 | 88 | 1020.2 |
| 20260507140523 | 53 | 136 | 2.0 | 3.0 | 0.00 | 0.00 | 0.00 | 88 | 1020.2 |
| 20260507140045 | 53 | 111 | 2.0 | 3.0 | 0.00 | 0.00 | 0.00 | 88 | 1020.2 |
| 20260507135522 | 53 | 114 | 2.0 | 3.0 | 0.00 | 0.00 | 0.00 | 88 | 1020.1 |
| 20260507135022 | 53 | 118 | 2.0 | 3.0 | 0.00 | 0.00 | 0.00 | 88 | 1020.1 |
| 20260507134544 | 53 | 116 | 2.0 | 3.0 | 0.00 | 0.00 | 0.00 | 88 | 1020.1 |
| 20260507134022 | 53 | 103 | 2.0 | 4.0 | 0.00 | 0.00 | 0.00 | 88 | 1020.2 |
| 20260507133522 | 53 | 117 | 2.0 | 4.0 | 0.00 | 0.00 | 0.00 | 89 | 1020.1 |
| 20260507133043 | 53 | 100 | 2.0 | 4.0 | 0.00 | 0.00 | 0.00 | 88 | 1020.2 |
| 20260507132522 | 53 | 130 | 2.0 | 3.0 | 0.00 | 0.00 | 0.00 | 88 | 1020.1 |
| 20260507132022 | 52 | 111 | 1.0 | 3.0 | 0.00 | 0.00 | 0.00 | 89 | 1020.2 |
| 20260507131548 | 53 | 95 | 1.0 | 3.0 | 0.00 | 0.00 | 0.00 | 89 | 1020.1 |
| 20260507131023 | 52 | 118 | 1.0 | 5.0 | 0.00 | 0.00 | 0.00 | 89 | 1020.1 |
| 20260507130522 | 52 | 143 | 3.0 | 5.0 | 0.00 | 0.00 | 0.00 | 89 | 1020.0 |
| 20260507130041 | 52 | 108 | 2.0 | 6.0 | 0.00 | 0.00 | 0.00 | 89 | 1020.1 |
| 20260507125521 | 52 | 121 | 3.0 | 6.0 | 0.00 | 0.00 | 0.00 | 88 | 1020.1 |
| 20260507125022 | 52 | 113 | 4.0 | 6.0 | 0.00 | 0.00 | 0.00 | 89 | 1020.0 |
| 20260507124537 | 52 | 85 | 3.0 | 6.0 | 0.00 | 0.00 | 0.00 | 88 | 1020.1 |
| 20260507124021 | 53 | 93 | 3.0 | 5.0 | 0.00 | 0.00 | 0.00 | 89 | 1020.1 |
| 20260507123523 | 53 | 103 | 2.0 | 4.0 | 0.00 | 0.00 | 0.00 | 88 | 1020.2 |
| 20260507123037 | 53 | 91 | 2.0 | 4.0 | 0.00 | 0.00 | 0.00 | 89 | 1020.2 |
| 20260507122523 | 53 | 105 | 2.0 | 4.0 | 0.00 | 0.00 | 0.00 | 88 | 1020.1 |
| 20260507122020 | 53 | 127 | 2.0 | 4.0 | 0.00 | 0.00 | 0.00 | 89 | 1020.2 |
| 20260507121544 | 53 | 144 | 2.0 | 4.0 | 0.00 | 0.00 | 0.00 | 89 | 1020.4 |
| 20260507121023 | 53 | 101 | 2.0 | 3.0 | 0.00 | 0.00 | 0.00 | 89 | 1020.4 |
| 20260507120524 | 53 | 101 | 2.0 | 3.0 | 0.00 | 0.00 | 0.00 | 89 | 1020.4 |
| 20260507120041 | 53 | 121 | 2.0 | 4.0 | 0.00 | 0.00 | 0.00 | 88 | 1020.4 |
| 20260507115523 | 53 | 108 | 1.0 | 4.0 | 0.00 | 0.00 | 0.00 | 88 | 1020.4 |
| 20260507115023 | 53 | 101 | 2.0 | 4.0 | 0.00 | 0.00 | 0.00 | 88 | 1020.4 |